Regional Weather Roundup
Issued by NWS Wilmington, NC

Home | Current Version | Previous Version | Text Only | Print | Product List | Glossary On
Versions: 1 2 3 4 5 6 7 8 9 10 11 12 13 14 15 16 17 18 19 20 21 22 23 24 25 26 27 28 29 30 31 32 33 34 35 36 37 38 39 40 41 42 43 44 45 46 47 48 49 50
000
ASUS42 KILM 222112
RWRILM
RWRILM
REGIONAL HOURLY WEATHER ROUNDUP
NATIONAL WEATHER SERVICE WILMINGTON NC
400 PM EST SUN JAN 22 2017

NOTE: "FAIR" INDICATES FEW OR NO CLOUDS BELOW 12,000 FEET WITH NO
SIGNIFICANT WEATHER AND/OR OBSTRUCTIONS TO VISIBILITY.

...............WFO WILMINGTON COUNTY WARNING AREA...............

......COASTAL NC AND SC COUNTIES......

CITY           SKY/WX    TMP DP  RH WIND       PRES   REMARKS
WILMINGTON     CLOUDY    61  59  93 VRB3      29.56R
N MYRTLE BEACH CLOUDY    61  60  97 SW3       29.55R
MYRTLE BEACH   PTSUNNY   63  57  82 W7        29.56F

......INLAND NC AND SC COUNTIES.......

CITY           SKY/WX    TMP DP  RH WIND       PRES   REMARKS
LUMBERTON      CLOUDY    64  60  87 VRB3      29.55R
ELIZABETHTOWN  CLOUDY    63  60  88 CALM      29.57R
WHITEVILLE     CLOUDY    63  58  85 S6        29.54R
FLORENCE       CLOUDY    64  59  83 S10       29.55R
DARLINGTON     CLOUDY    64  59  83 S10       29.55R
KINGSTREE      CLOUDY    63  57  82 S6        29.53F
HARTSVILLE     CLOUDY    63  57  82 S6        29.53R
BENNETTSVILLE  CLOUDY    66  61  82 SE3       29.55R HAZE
CONWAY         FAIR      59  59 100 CALM      29.57R
GEORGETOWN     LGT RAIN  61  57  88 SW14G24   29.56R
MARION         FAIR      61  57  88 SW7       29.57R

....................REST OF NORTH CAROLINA......................

.........EASTERN NC.........

CITY           SKY/WX    TMP DP  RH WIND       PRES   REMARKS
CAPE HATTERAS  CLOUDY    62  59  90 N5        29.55R FOG
JACKSONVILLE   CLOUDY    63  60  90 S3        29.57R
MOREHEAD CITY  CLOUDY    61  59  93 NW3       29.57R
KENANSVILLE    CLOUDY    64  59  82 S5        29.57R
NEW BERN       CLOUDY    63  58  83 S6        29.57R
ELIZABETH CITY CLOUDY    54  53  97 N3        29.57S

.........CENTRAL NC.........

CITY           SKY/WX    TMP DP  RH WIND       PRES   REMARKS
RALEIGH DURHAM FOG       55  53  93 CALM      29.58R VSB 1/2
ROCKY MOUNT    CLOUDY    55  55 100 CALM      29.57R
ROANOKE RAPIDS NOT AVBL
FAYETTEVILLE   CLOUDY    63  59  87 NE5       29.55R
HOFFMAN        PTSUNNY   63  58  82 E3        29.54R

.........WESTERN NC.........

CITY           SKY/WX    TMP DP  RH WIND       PRES   REMARKS
CHARLOTTE      CLOUDY    63  55  75 NE7       29.51F
GREENSBORO     CLOUDY    54  54 100 NE5       29.56R FOG
HICKORY        NOT AVBL
BOONE          NOT AVBL
ASHEVILLE      NOT AVBL

.....................REST OF SOUTH CAROLINA.....................

.........EASTERN SC.........

CITY           SKY/WX    TMP DP  RH WIND       PRES   REMARKS
CHARLESTON     HVY RAIN  62  60  93 CALM      29.50F FOG
BEAUFORT MCAS  CLOUDY    62  60  93 SE5       29.49F
HILTON HEAD    LGT RAIN  61  61 100 SE9       29.49F

.........CENTRAL SC.........

CITY           SKY/WX    TMP DP  RH WIND       PRES   REMARKS
COLUMBIA       LGT RAIN  64  60  87 E6        29.42F
ORANGEBURG     LGT RAIN  62  61  96 VRB3      29.45R
SUMTER SHAW    CLOUDY    63  58  84 N6        29.44F

.........WESTERN SC.........

CITY           SKY/WX    TMP DP  RH WIND       PRES   REMARKS
GREENVILLE     NOT AVBL
ROCK HILL      MOSUNNY   65  57  75 VRB3      29.49F
ANDERSON       CLOUDY    63  57  81 E10       29.38F
CLEMSON        NOT AVBL
GREENWOOD      LGT RAIN  62  57  83 NE7       29.39F


...................COASTAL AND OFFSHORE REPORTS..................

................LOCAL PIERS AND NC RESERVE................


STATION/POSITION TIME  SKY/WX   TEMP    WIND        PRES    VSBY
                                AIR SEA DIR/SP/G
                 (UTC)          (F)     (DEG/KT/KT) (MB)    (MI)
JOHNY MRCER PIER 2048            59 55  210/  3/  4  999.6F
NC RESRV MASNBRO 1945            58     240/  3      999.0
OCEAN CREST PIER NOT AVBL
SPRINGMAID  PIER NOT AVBL


................COASTAL AND OFFSHORE BUOYS................


STATION/POSITION TIME  SKY/WX   TEMP    WIND        PRES    VSBY
                                AIR SEA DIR/SP/G
                 (UTC)          (F)     (DEG/KT/KT) (MB)    (MI)
DIMNDSHOAL 41025 2050            66 72  270/ 10/ 14 1000.3R
WVE H/P(F/S)=  4/12 SWL H/P/D(F/S/D)=  3/100/12

CAPE LOOKOUT     2000            62      CALM  /  1  999.5R
ONSLOW BAY 41036 NOT AVBL
ONSLOW BAY 41064 2008            64 65  210/ 16/ 21 1000.1R
ONSLOW BAY 41159 2043               65                N/A
WVE H/P(F/S)=  4/13 SWL H/P/D(F/S/D)=  2/100/13

MASNBO INL 41110 2059               54                N/A
WVE H/P(F/S)=  3/ 6 SWL H/P/D(F/S/D)=  2/100/13

WILM HARBR 41108 2056               57                N/A
WVE H/P(F/S)=  4/ 7 SWL H/P/D(F/S/D)=  2/130/11

27SE WRITB 41037 2008            66 66  180/ 21/ 31  998.6F
FRYING PAN 41013 2050            69 67  170/ 21/ 27  999.5F
WVE H/P(F/S)=  5/ 7 SWL H/P/D(F/S/D)=  3/180/ 7

SUNST NRSH 41024 2008            58 56  260/  4/  6 1000.0R
CAPRS NRSH 41029 2008            59 57  230/ 10/ 16 1001.5R
EDISTO     41004 1950            66 68  190/ 16/ 17 1000.4
WVE H/P(F/S)=  5/ 7 SWL H/P/D(F/S/D)=  3/230/16



..........OFFSHORE BUOYS BEYOND 100 NM OFFSHORE...........
.....IN A TRIANGLE---HAT TO BERMUDA TO BAHAMAS TO HAT.....


STATION/POSITION TIME  SKY/WX   TEMP    WIND        PRES    VSBY
                                AIR SEA DIR/SP/G
                 (UTC)          (F)     (DEG/KT/KT) (MB)    (MI)
150E HAT   41001 NOT AVBL
W BERMUDA  41048 2050            71 70  210/ 16/ 19 1008.2R
WVE H/P(F/S)=  7/14 SWL H/P/D(F/S/D)=  5/ 40/14

ATLANTIC S 41049 2050            73 75  220/ 14/ 16 1014.1F
WVE H/P(F/S)=  7/13 SWL H/P/D(F/S/D)=  7/ 20/13

E BAHAMAS  41046 2050            76 78  180/ 10/ 14 1013.1S
WVE H/P(F/S)=  4/11 SWL H/P/D(F/S/D)=  3/11

NE BAHAMAS 41047 2050            75 75  210/ 17/ 21 1011.5S
WVE H/P(F/S)=  6/13 SWL H/P/D(F/S/D)=  3/ 60/13

120E CANVRL41010 NOT AVBL

END



USA.gov is the U.S. government's official web portal to all federal, state and local government web resources and services.